Terug naar catalogus

STARLINK-35748

ActiefCommunicatieVLEO
NORAD 66206·PAYLOAD·🇺🇸 United States

Gelanceerd Oct 28, 2025 vanaf Vandenberg Space Force Base

Loading…

Volgende Passages (komende 24 uur)

TLE

VersSource: CelesTrak SupGP

Epoch: Sep 14, 2026, 15:15 UTC

1 66206C 25244A   26257.63590278 -.00049744  00000+0 -14693-2 0  2570
2 66206  53.1589  68.7633 0001243  85.8299  57.3812 15.34423697    18

Volg STARLINK-35748 in realtime met AllMySat

Download on the App Store